Regional Weather Roundup
Issued by NWS

Home | Current Version | Previous Version | Text Only | Print | Product List | Glossary On
Versions: 1 2 3 4 5 6 7 8 9 10 11 12 13 14 15 16 17 18 19 20 21 22 23 24 25 26 27 28 29 30 31 32 33 34 35 36 37 38 39 40 41 42 43 44 45 46 47 48 49 50
744
ASUS44 KLIX 210105
RWRLA
LOUISIANA WEATHER ROUNDUP
NATIONAL WEATHER SERVICE NEW ORLEANS LA
700 PM CST SAT DEC 20 2014

NOTE: "FAIR" INDICATES FEW OR NO CLOUDS BELOW 12,000 FEET WITH NO
      SIGNIFICANT WEATHER AND/OR OBSTRUCTIONS TO VISIBILITY.
      SKY/WX - SKY CONDITION AND SIGNIFICANT WEATHER.
      TMP - AIR TEMPERATURE.    DP   - DEWPOINT TEMPERATURE.
      RH  - RELATIVE HUMIDITY.  PRES - PRESSURE.
      HX  - HEAT INDEX.         WCI  - WIND CHILL INDEX.

*  THESE STATIONS ARE NOT NWS OR FAA STATIONS AND ARE NOT UNDER
   NWS QUALITY CONTROL.

LAZ040-048-061>063-065-066-069-210200-
SOUTHEAST LOUISIANA

CITY           SKY/WX    TMP DP  RH WIND       PRES   REMARKS
N.O. AUDUBON     N/A     53  50  89 MISG        N/A
N.O. INTL ARPT CLOUDY    52  48  86 NE13      30.14R
N.O. LAKEFRONT CLOUDY    54  48  80 NE20      30.14S
N.O. DOWNTOWN* CLOUDY    52  45  76 N7        30.14S
SLIDELL        CLOUDY    52  46  80 NE8       30.15R
BATON ROUGE    MOCLDY    47  44  90 NE5       30.15S
BOOTHVILLE     CLOUDY    54  51  90 N10G20    30.12R
BELLE CHASSE   CLOUDY    53  48  83 NE8       30.13R
BOGALUSA*        N/A     52  46  80 NE6       30.17S
GALLIANO*      CLOUDY    55  50  84 MISG      30.13R
NEW ROADS*     FAIR      48  46  93 E3        30.15F
GONZALES*      CLOUDY    50  50  99 CALM      30.15S
HAMMOND*       NOT AVBL
HOUMA*         CLOUDY    50  49  93 N10       30.13R
PORT FOURCHON* CLOUDY    55  50  82 NE15G22   30.14R

$$

LAZ041-044-053-054-210200-
SOUTHWEST LOUISIANA

CITY           SKY/WX    TMP DP  RH WIND       PRES   REMARKS
LAKE CHARLES   MOCLDY    51  45  79 NE3       30.16R
LAFAYETTE      MOCLDY    49  46  90 NE5       30.15R
PATTERSON      CLOUDY    52  46  82 NE10      30.16R
SALT POINT       N/A     54  49  83 CALM      30.13R
NEW IBERIA     MOCLDY    50  47  89 NE7       30.15S
CHENAULT AIRPK CLEAR     52  46  82 CALM      30.17R

$$

LAZ027-028-210200-
CENTRAL LOUISIANA

CITY           SKY/WX    TMP DP  RH WIND       PRES   REMARKS
FORT POLK      MOCLDY    46  43  92 N5        30.17R
ALEXANDRIA INT MOCLDY    48  43  82 N6        30.16R
ALEXANDRIA     MOCLDY    45  44  97 CALM      30.17R

$$

LAZ001-002-210200-
NORTHWEST LOUISIANA

CITY           SKY/WX    TMP DP  RH WIND       PRES   REMARKS
SHREVEPORT     PTCLDY    41  39  93 W6        30.20R
BARKSDALE AFB  NOT AVBL
DTN SHREVEPORT CLEAR     42  39  89 CALM      30.20S

$$

LAZ014-016-210200-
NORTHEAST LOUISIANA

CITY           SKY/WX    TMP DP  RH WIND       PRES   REMARKS
MONROE         CLEAR     44  39  82 NE6       30.21R
TALLULAH       PTCLDY    46  40  79 N9        30.20R

$$




USA.gov is the U.S. government's official web portal to all federal, state and local government web resources and services.